Location: ??
(35.5052°N, 139.7262°E)
Time: 03:46:21
(UTC+00:00)

Cosmos 1812 - Pass Details

Date: 20 June 2021
Orbit: 515 x 520 km, 82.5° (Epoch: 26 July)

Event Time Altitude Azimuth Distance (km) Brightness Sun altitude
Rises 17:58:10 0° 349° (N) 2,639 6.8 -15.1°
Reaches altitude 10° 18:00:19 10° 346° (NNW) 1,748 5.8 -14.8°
Maximum altitude 18:04:06 62° 266° (W) 581 2.7 -14.2°
Enters shadow 18:06:59 16° 187° (S) 1,384 4.4 -13.8°
